| time (UTC) | temp F | wind direction | speed MPH | gust MPH | rain 1hr in | rain 24hr in | rain mn in | humidity % | barometer mb |
| 20260505230048 | 55 | 338 | 4.0 | 9.0 | 0.00 | 0.00 | 0.00 | 41 | 1008.6 |
| 20260505224547 | 55 | 321 | 2.0 | 6.0 | 0.00 | 0.00 | 0.00 | 38 | 1008.8 |
| 20260505223122 | 55 | 339 | 9.0 | 12.0 | 0.00 | 0.00 | 0.00 | 37 | 1008.9 |
| 20260505221549 | 56 | 300 | 2.0 | 6.0 | 0.00 | 0.00 | 0.00 | 40 | 1008.8 |
| 20260505220045 | 56 | 323 | 3.0 | 6.0 | 0.00 | 0.00 | 0.00 | 39 | 1008.8 |
| 20260505214553 | 55 | 319 | 6.0 | 11.0 | 0.00 | 0.00 | 0.00 | 37 | 1008.9 |
| 20260505213048 | 56 | 314 | 4.0 | 12.0 | 0.00 | 0.00 | 0.00 | 37 | 1008.8 |
| 20260505211544 | 57 | 311 | 5.0 | 11.0 | 0.00 | 0.00 | 0.00 | 37 | 1008.8 |
| 20260505210046 | 56 | 346 | 6.0 | 13.0 | 0.00 | 0.00 | 0.00 | 37 | 1008.9 |
| 20260505204549 | 56 | 315 | 8.0 | 13.0 | 0.00 | 0.00 | 0.00 | 36 | 1008.8 |
| 20260505203050 | 55 | 318 | 3.0 | 7.0 | 0.00 | 0.00 | 0.00 | 38 | 1009.0 |
| 20260505201551 | 55 | 315 | 9.0 | 16.0 | 0.00 | 0.00 | 0.00 | 34 | 1009.2 |
| 20260505200050 | 56 | 345 | 5.0 | 16.0 | 0.00 | 0.00 | 0.00 | 33 | 1009.0 |
| 20260505194605 | 57 | 325 | 2.0 | 12.0 | 0.00 | 0.00 | 0.00 | 35 | 1009.1 |
| 20260505193043 | 57 | 324 | 5.0 | 13.0 | 0.00 | 0.00 | 0.00 | 33 | 1009.2 |
| 20260505191546 | 57 | 323 | 9.0 | 16.0 | 0.00 | 0.00 | 0.00 | 32 | 1009.3 |
| 20260505190045 | 57 | 348 | 5.0 | 13.0 | 0.00 | 0.00 | 0.00 | 36 | 1009.5 |
| 20260505184541 | 56 | 14 | 7.0 | 13.0 | 0.00 | 0.00 | 0.00 | 35 | 1009.3 |
| 20260505183047 | 56 | 322 | 8.0 | 12.0 | 0.00 | 0.00 | 0.00 | 33 | 1009.4 |
| 20260505181549 | 56 | 333 | 7.0 | 14.0 | 0.00 | 0.00 | 0.00 | 30 | 1009.2 |
| 20260505180044 | 56 | 204 | 7.0 | 13.0 | 0.00 | 0.00 | 0.00 | 31 | 1009.2 |
| 20260505174556 | 56 | 317 | 6.0 | 12.0 | 0.00 | 0.00 | 0.00 | 34 | 1008.9 |
| 20260505173048 | 55 | 318 | 6.0 | 11.0 | 0.00 | 0.00 | 0.00 | 37 | 1008.9 |
| 20260505171551 | 54 | 346 | 8.0 | 13.0 | 0.00 | 0.00 | 0.00 | 35 | 1008.9 |
| 20260505170047 | 54 | 314 | 9.0 | 13.0 | 0.00 | 0.00 | 0.00 | 33 | 1009.1 |
| 20260505164610 | 54 | 327 | 6.0 | 11.0 | 0.00 | 0.00 | 0.00 | 37 | 1009.0 |
| 20260505163051 | 53 | 321 | 3.0 | 11.0 | 0.00 | 0.00 | 0.00 | 41 | 1008.7 |
| 20260505161545 | 53 | 326 | 9.0 | 15.0 | 0.00 | 0.00 | 0.00 | 37 | 1008.9 |
| 20260505153047 | 52 | 307 | 4.0 | 8.0 | 0.00 | 0.00 | 0.00 | 41 | 1008.7 |
| 20260505151546 | 51 | 323 | 5.0 | 13.0 | 0.00 | 0.00 | 0.00 | 41 | 1008.9 |
| 20260505130107 | 47 | 335 | 2.0 | 4.0 | 0.00 | 0.00 | 0.00 | 50 | 1009.0 |
| 20260505124553 | 47 | 329 | 2.0 | 4.0 | 0.00 | 0.00 | 0.00 | 53 | 1008.7 |
| 20260505123047 | 47 | 317 | 1.0 | 2.0 | 0.00 | 0.00 | 0.00 | 55 | 1008.9 |
| 20260505121545 | 46 | 327 | 0.0 | 1.0 | 0.00 | 0.00 | 0.00 | 59 | 1009.1 |
| 20260505120105 | 46 | 0 | 0.0 | 1.0 | 0.00 | 0.00 | 0.00 | 61 | 1008.8 |
| 20260505114547 | 46 | 327 | 1.0 | 2.0 | 0.00 | 0.00 | 0.00 | 60 | 1009.0 |
| 20260505113052 | 46 | 0 | 1.0 | 4.0 | 0.00 | 0.00 | 0.00 | 58 | 1008.0 |
| 20260505111552 | 46 | 322 | 0.0 | 2.0 | 0.00 | 0.00 | 0.00 | 59 | 1008.1 |
| 20260505101547 | 47 | 0 | 1.0 | 4.0 | 0.00 | 0.00 | 0.00 | 54 | 1006.9 |
| 20260505100048 | 47 | 317 | 2.0 | 5.0 | 0.00 | 0.00 | 0.00 | 53 | 1006.9 |
| 20260505094548 | 47 | 307 | 0.0 | 3.0 | 0.00 | 0.00 | 0.00 | 55 | 1006.4 |
| 20260505093046 | 48 | 265 | 1.0 | 6.0 | 0.00 | 0.00 | 0.00 | 53 | 1006.5 |
| 20260505091549 | 48 | 312 | 1.0 | 8.0 | 0.00 | 0.00 | 0.00 | 52 | 1006.6 |
| 20260505090050 | 48 | 307 | 3.0 | 8.0 | 0.00 | 0.00 | 0.00 | 55 | 1006.7 |
| 20260505084545 | 48 | 321 | 3.0 | 7.0 | 0.00 | 0.00 | 0.00 | 55 | 1006.0 |
| 20260505083048 | 49 | 64 | 3.0 | 9.0 | 0.00 | 0.00 | 0.00 | 52 | 1005.8 |
| 20260505081552 | 50 | 313 | 2.0 | 9.0 | 0.00 | 0.00 | 0.00 | 52 | 1005.1 |
| 20260505080049 | 50 | 115 | 1.0 | 8.0 | 0.00 | 0.00 | 0.00 | 55 | 1004.9 |
| 20260505074542 | 51 | 310 | 1.0 | 4.0 | 0.00 | 0.00 | 0.00 | 56 | 1004.7 |
| 20260505073051 | 52 | 324 | 1.0 | 8.0 | 0.00 | 0.00 | 0.00 | 54 | 1004.2 |
| 20260505071553 | 52 | 63 | 2.0 | 10.0 | 0.00 | 0.00 | 0.00 | 54 | 1003.8 |
| 20260505070047 | 50 | 322 | 4.0 | 6.0 | 0.00 | 0.00 | 0.00 | 59 | 1003.7 |
| 20260505064546 | 51 | 321 | 3.0 | 5.0 | 0.00 | 0.00 | 0.00 | 56 | 1003.6 |
| 20260505063044 | 52 | 325 | 0.0 | 1.0 | 0.00 | 0.00 | 0.00 | 53 | 1003.3 |
| 20260505061542 | 53 | 325 | 2.0 | 4.0 | 0.00 | 0.00 | 0.00 | 51 | 1003.4 |
| 20260505060044 | 54 | 325 | 3.0 | 5.0 | 0.00 | 0.00 | 0.00 | 49 | 1003.2 |
| 20260505054552 | 55 | 313 | 4.0 | 8.0 | 0.00 | 0.00 | 0.00 | 47 | 1002.8 |
| 20260505053057 | 56 | 325 | 4.0 | 6.0 | 0.00 | 0.00 | 0.00 | 45 | 1002.8 |
| 20260505051546 | 57 | 321 | 3.0 | 10.0 | 0.00 | 0.00 | 0.00 | 45 | 1002.7 |
| 20260505041546 | 58 | 338 | 5.0 | 11.0 | 0.00 | 0.00 | 0.00 | 41 | 1002.1 |
| 20260505040050 | 59 | 317 | 7.0 | 12.0 | 0.00 | 0.00 | 0.00 | 40 | 1001.9 |
| 20260505034543 | 60 | 340 | 8.0 | 14.0 | 0.00 | 0.00 | 0.00 | 39 | 1001.7 |
| 20260505033045 | 60 | 349 | 7.0 | 10.0 | 0.00 | 0.00 | 0.00 | 43 | 1001.6 |
| 20260505031548 | 61 | 325 | 3.0 | 5.0 | 0.00 | 0.00 | 0.00 | 46 | 1001.4 |
| 20260505030048 | 63 | 320 | 8.0 | 14.0 | 0.00 | 0.00 | 0.00 | 42 | 1001.3 |
| 20260505024546 | 64 | 316 | 7.0 | 10.0 | 0.00 | 0.00 | 0.00 | 42 | 1001.3 |
| 20260505023051 | 65 | 331 | 5.0 | 11.0 | 0.00 | 0.00 | 0.00 | 42 | 1000.5 |
| 20260505021543 | 67 | 350 | 12.0 | 19.0 | 0.00 | 0.00 | 0.00 | 41 | 1000.3 |
| 20260505020042 | 67 | 314 | 7.0 | 13.0 | 0.00 | 0.00 | 0.00 | 48 | 1000.3 |
| 20260505014549 | 67 | 317 | 2.0 | 6.0 | 0.00 | 0.00 | 0.00 | 54 | 999.5 |
| 20260505013047 | 67 | 300 | 0.0 | 2.0 | 0.00 | 0.00 | 0.00 | 57 | 998.7 |
| 20260505011552 | 67 | 283 | 0.0 | 4.0 | 0.00 | 0.00 | 0.00 | 56 | 998.5 |
| 20260505010048 | 68 | 283 | 0.0 | 3.0 | 0.00 | 0.00 | 0.00 | 54 | 998.3 |
| 20260505004542 | 69 | 280 | 1.0 | 5.0 | 0.00 | 0.00 | 0.00 | 50 | 997.5 |
| 20260505003046 | 71 | 284 | 1.0 | 3.0 | 0.00 | 0.00 | 0.00 | 45 | 997.2 |
| 20260505001547 | 71 | 285 | 0.0 | 3.0 | 0.00 | 0.00 | 0.00 | 48 | 997.2 |
| 20260505000049 | 72 | 281 | 0.0 | 3.0 | 0.00 | 0.00 | 0.00 | 47 | 996.9 |
| 20260504234544 | 74 | 0 | 0.0 | 4.0 | 0.00 | 0.00 | 0.00 | 46 | 996.8 |
| 20260504233045 | 74 | 0 | 0.0 | 1.0 | 0.00 | 0.00 | 0.00 | 44 | 997.2 |
| 20260504231544 | 74 | 287 | 0.0 | 2.0 | 0.00 | 0.00 | 0.00 | 43 | 997.4 |